Weather in Tarapoto

Peru     6°30′45″S   76°22′18″W
temp.,
°C
wind,
m/s
gust,
m/s
humid.,
%
clouds,
%
prec.,
mm/h
press.,
hPa
HPBL,
m
20 january, wed
wed2001:00+20wnw0097100 0.0 101324
04:00+20ne0097100 0.0 101124
07:00+20ne1197100 0.0 101362
10:00+24nne1180100 0.1 1015553
13:00+22nne239696 3.6 1012467
16:00+23nne238575 1.9 1010557
19:00+20ne119984 2.1 101149
22:00+19ne019689 0.0 101323
21 january, thu
thu2101:00+20ssw019495 0.0 101223
04:00+19w009866 0.0 101223
07:00+20sw019375 0.0 101339
10:00+27se116185 0.0 1014954
13:00+27e126686 0.4 1011777
16:00+26wnw118320 2.5 1007454
19:00+21w019559 4.2 100923
22:00+21n019682 0.9 101223
22 january, fri
fri2201:00+20w009864 1.7 101223
04:00+19sw1110089 5.0 101171
07:00+20sw1210095 9.4 1013119
10:00+20wsw1299100 2.7 1015127
13:00+24wsw129195 5.6 1012361
16:00+25wsw019161 6.0 1009252
19:00+21e119779 8.6 101139
22:00+20nw1199100 4.9 101445
23 january, sat
sat2301:00+20w1199100 6.2 101332
04:00+19wsw1199100 1.2 101144
07:00+20se0198100 1.2 101329
10:00+21ssw1298100 6.1 1015238
13:00+20s12100100 19.2 1014215
16:00+20sw1299100 5.3 1012196
19:00+19sw12100100 5.7 1013133
22:00+19ssw12100100 0.0 1014114
24 january, sun
sun2401:00+19ssw1199100 0.0 101250
04:00+18sw1199100 0.0 101134
07:00+19sw1199100 0.0 101353
10:00+26wsw0169100 0.0 1014672
13:00+21ne1297100 2.1 1012184
16:00+22ne128799 0.6 1009340
19:00+19n119798 0.8 101024
22:00+19nne1196100 0.0 101223